Location: Jaksice
(50.3243°N, 20.0033°E)
Time: 23:56:56
(UTC+00:00)

Daily predictions for brighter satellites

Satellite Brightness Start Highest point End
(mag) Time Altitude Azimuth Time Altitude Azimuth Time Altitude Azimuth
Cosmos 2322 Rocket 3.7 16:39:24 10° SE 16:42:18 14° E 16:45:12 10° ENE
Timation 2 Rocket 4.0 16:38:22 10° NNW 16:44:54 86° ENE 16:51:07 10° SSE
CZ-2C R/B 4.2 16:41:00 10° N 16:46:13 42° WNW 16:51:27 10° SW
Cosmos 841 Rocket 3.6 16:41:47 10° NNW 16:47:00 84° WSW 16:52:08 10° SSE
Cosmos 1980 Rocket 2.2 16:42:03 10° SSW 16:47:39 70° ESE 16:53:15 10° NNE
CZ-4B R/B 3.4 16:42:53 10° SE 16:48:08 54° ENE 16:53:31 10° N
PSLV R/B 3.6 16:44:35 10° SSE 16:48:13 65° ENE 16:51:51 10° N
Cosmos 1726 2.6 16:46:23 10° SSE 16:49:47 37° E 16:53:11 10° NNE
CZ-4 R/B 4.4 16:46:27 10° SSE 16:50:33 83° ENE 16:54:41 10° NNW
DMSP B5D2-2 4.1 16:45:41 10° NNE 16:50:59 69° ESE 16:56:14 10° S
ARGOS Delta rocket 4.4 16:46:19 10° NNE 16:51:20 43° E 16:56:05 10° SSE
USA 186 3.9 16:49:54 10° E 16:51:25 13° ENE 16:52:55 10° NE
Cosmos 1378 Rocket 3.6 16:47:16 10° N 16:51:37 59° ENE 16:55:53 10° SSE
Cosmos 1470 4.3 16:51:21 10° ESE 16:53:40 15° E 16:55:58 10° NE
USA 215 3.3 16:51:42 10° ENE 16:58:16 78° SE 17:04:49 10° SW
Cosmos 2279 Rocket 4.3 16:56:14 10° NNW 17:02:29 77° W 17:08:44 10° S
Cosmos 1850 Rocket 4.0 16:57:30 10° SSW 17:02:43 80° ESE 17:08:02 10° NNE
Cosmos 2369 3.8 16:59:25 10° SSW 17:05:09 85° WNW 17:10:55 10° NNE
Cosmos 1733 Rocket 3.2 17:01:21 10° S 17:05:48 86° W 17:10:17 10° N
Cosmos 1844 Rocket 3.4 17:01:22 10° NNW 17:06:34 35° NE 17:11:17 12° ESE
BREEZE-M DEB (TANK) 4.3 17:02:17 10° SW 17:06:51 57° SE 17:25:06 10° ENE
COBE Rocket 3.8 17:03:48 10° SSE 17:08:37 73° ENE 17:13:20 10° N
Cosmos 2221 Rocket 4.0 17:04:42 10° NNW 17:09:14 72° W 17:13:45 10° S
Cosmos 2278 3.7 17:05:22 10° SSW 17:10:56 61° ESE 17:16:33 10° NE
SL-16 R/B 2.9 17:07:02 10° SSE 17:11:59 32° ESE 17:16:58 10° NE
Cosmos 1570 Rocket 4.0 17:08:16 10° NNW 17:13:32 63° ENE 17:18:42 10° SE
PAYLOAD B 4.5 17:08:24 10° S 17:13:54 74° WSW 17:19:25 10° NNW
Meteor 2-21 Rocket 4.5 17:13:20 10° S 17:19:13 57° E 17:25:07 10° NNE
BREEZE-M DEB (TANK) 3.7 17:18:12 10° W 17:20:07 25° SSW 17:23:03 10° SE
Cosmos 2278 Rocket 4.2 17:17:55 10° N 17:20:35 13° NNE 17:23:14 10° NE
Resurs 01 Rocket 3.4 17:23:45 13° ENE 17:24:27 14° NE 17:26:44 10° NNE
COSMO-SKYMED 1 3.3 17:20:18 10° N 17:24:36 58° WNW 17:28:51 10° SSW
Cosmos 2263 Rocket 3.1 17:20:21 10° NW 17:25:54 53° WSW 17:31:24 10° S
Meteor 1-24 Rocket 3.8 17:22:13 10° N 17:27:23 50° ENE 17:32:37 10° SSE
SJ-6B 3.6 17:26:36 20° ESE 17:28:23 30° ENE 17:31:44 10° N
Spot 1 4.0 17:25:53 10° NNE 17:30:08 83° WNW 17:34:12 10° SSW
ASTEX 1 4.1 17:25:48 10° N 17:30:43 60° W 17:35:38 10° SSW
H-2A R/B 4.1 17:30:44 16° ENE 17:30:49 16° ENE 17:33:08 10° NNE
Cosmos 1437 Rocket 2.8 17:27:20 10° S 17:30:58 49° E 17:34:36 10° NNE
HJ-1C 3.3 17:29:22 10° S 17:32:28 75° WSW 17:35:36 10° NNW
Meteor 2-16 Rocket 4.4 17:27:12 10° S 17:33:13 62° E 17:39:17 10° NNE
USA 267 3.9 17:28:34 10° SE 17:34:56 52° SW 17:41:19 10° WNW
Feng Yun 1-1 Rocket 4.1 17:29:50 10° SSE 17:35:18 78° ENE 17:40:43 10° NNW
IRIDIUM 104 4.3 17:30:54 10° S 17:36:07 89° ESE 17:41:23 10° N
Cosmos 1814 Rocket 4.5 17:32:06 10° NNW 17:37:18 63° WSW 17:42:25 10° S
SL-4 R/B 3.3 17:34:46 10° WNW 17:38:56 40° SSW 17:42:26 15° SSE
Cosmos 1844 4.0 17:35:38 10° NNW 17:41:02 48° NE 17:44:18 23° ESE
Cosmos 2084 Rocket 3.1 17:37:25 10° NW 17:41:15 81° NE 17:43:22 26° SE
Cosmos 2208 Rocket 4.0 17:36:42 10° NNW 17:42:08 83° ENE 17:47:34 10° SSE
Okean-O 3.0 17:42:56 24° SE 17:45:12 42° ENE 17:49:23 10° N
IRIDIUM 114 4.5 17:40:04 10° S 17:45:17 77° W 17:50:32 10° N
Meteor 1-22 Rocket 4.2 17:41:02 10° S 17:46:20 58° E 17:51:54 10° NNE
CZ-4 R/B 1.7 17:43:52 10° S 17:48:02 73° WSW 17:52:14 10° NNW
ISS -0.9 17:47:04 10° WSW 17:48:22 12° SW 17:49:40 10° SSW
Cosmos 1428 Rocket 4.5 17:42:19 10° S 17:48:23 60° E 17:54:32 10° NNE
IGS 5A 3.6 17:48:12 27° SE 17:50:10 49° ENE 17:54:10 10° N
CSL-04 Debris 4.1 17:46:19 12° SSE 17:51:16 64° ENE 17:56:37 10° N
Cosmos 1627 Rocket 4.5 17:45:43 10° S 17:51:40 57° E 17:57:39 10° NNE
Meteor 1-12 Rocket 4.4 17:45:39 10° SSW 17:51:40 86° W 17:57:44 10° NNE
Cosmos 2195 Rocket 4.4 17:45:53 10° S 17:52:02 66° E 17:58:18 10° NNE
BREEZE M DEB (TANK) 3.5 17:47:39 10° SW 17:52:37 26° SSE 17:53:03 25° SSE
OBJECT-B 0.5 17:54:14 53° NNE 17:54:14 53° NNE 17:56:21 10° N
Cosmos 1908 Rocket 3.6 17:49:48 10° SSW 17:54:07 77° W 17:58:29 10° N
Cosmos 1300 Rocket 4.0 17:53:19 33° ESE 17:54:08 36° E 17:58:07 10° NNE
Cosmos 2360 Rocket 2.7 17:51:35 10° S 17:56:36 34° ESE 18:01:37 10° NE
USA 81 4.0 17:52:28 10° N 17:57:45 66° E 18:02:39 12° SSE
Cosmos 1782 Rocket 3.4 17:57:59 10° S 18:02:17 72° E 18:06:40 10° NNE
Cosmos 1025 Rocket 2.9 18:01:16 10° N 18:05:36 77° ENE 18:07:57 27° SSE
YAOGAN 1 4.1 18:02:28 10° SSW 18:06:28 36° W 18:10:28 10° NNW
Cosmos 2026 Rocket 3.8 18:02:19 10° S 18:08:19 73° E 18:14:24 10° NNE
Cosmos 968 Rocket 3.5 18:04:11 10° SSW 18:09:27 82° WNW 18:14:43 10° NNE
ATLAS 2AS CENTAUR R/B 4.1 18:03:21 10° NW 18:09:41 29° N 18:14:11 16° ENE
Okean O Rocket 2.9 18:06:09 10° SSW 18:10:15 40° W 18:14:24 10° NNW
Lacrosse 4 Rocket 1.5 18:10:20 10° SSW 18:13:56 52° SE 18:13:56 52° SE
Meteor 2-5 Rocket 4.1 18:09:46 10° NNW 18:15:14 63° W 18:20:42 10° S
CSL-04 Rocket 3.6 18:13:27 20° SSE 18:17:15 89° E 18:22:44 10° NNW
Cosmos 1553 Rocket 4.0 18:12:05 10° N 18:18:26 65° ENE 18:21:53 28° SSE
NOSS 3-4 (A) 4.2 18:15:27 10° NW 18:21:53 49° NE 18:24:38 34° E
NOSS 3-4 (C) 4.2 18:15:33 10° NW 18:21:59 49° NE 18:24:44 34° E
USA 186 2.3 18:22:41 50° SW 18:23:14 59° W 18:26:36 10° NNW
Cosmos 2322 Rocket 2.1 18:19:42 10° SSW 18:25:24 78° ESE 18:31:08 10° NNE
Cosmos 2237 4.1 18:20:19 10° SSW 18:26:01 81° ESE 18:31:45 10° NNE
Landsat 7 3.6 18:25:23 50° SSE 18:26:37 78° ENE 18:31:21 10° NNW
SPOT 1/Viking Rocket 3.8 18:27:16 47° ENE 18:27:34 47° ENE 18:32:29 10° N
Cosmos 1536 Rocket 4.4 18:24:25 10° N 18:27:34 36° NE 18:27:34 36° NE
deb Chang Zheng 4 3.6 18:29:32 58° NE 18:29:32 58° NE 18:33:15 10° N
Cosmos 1470 3.6 18:25:27 10° SSW 18:29:11 50° WNW 18:32:57 10° N
Cosmos 1975 Rocket 3.6 18:26:15 10° NNW 18:30:36 58° W 18:33:09 23° SSW
Cosmos 1980 Rocket 4.2 18:27:23 10° WSW 18:32:10 28° NW 18:36:58 10° NNE
NOSS 3-3 (A) 4.1 18:27:50 10° SSW 18:32:27 45° SE 18:32:27 45° SE
NOSS 3-3 (C) 4.1 18:27:56 10° SSW 18:32:21 43° SSE 18:32:21 43° SSE
Ariane Rocket 3.8 18:36:14 35° NE 18:36:14 35° NE 18:40:18 10° N
Cosmos 1758 4.2 18:40:19 39° N 18:40:19 39° N 18:42:56 10° N
USA 215 3.7 18:36:54 22° NE 18:41:11 58° NNW 18:47:34 10° W
USA 281 4.2 18:40:48 28° ENE 18:41:50 30° NE 18:47:20 10° NNW
Aureole 1 Rocket 4.0 18:36:03 10° S 18:43:11 56° ESE 18:48:51 10° NNE
IRS-1C Rocket 4.4 18:43:42 30° S 18:46:17 63° WSW 18:51:31 10° NNW
Cosmos 1844 Rocket 3.3 18:45:12 10° NW 18:50:42 52° WSW 18:52:59 33° SSW
Cosmos 2315 Rocket 4.4 18:47:16 10° N 18:53:05 46° ENE 18:53:05 46° ENE
Landsat 5 4.4 18:50:10 10° N 18:54:32 51° WNW 18:58:50 10° SW
SL-16 R/B 3.0 18:50:21 10° SW 18:55:53 52° NW 19:01:26 10° NNE
Cosmos 1943 Rocket 4.0 18:53:48 10° N 18:57:24 17° NNE 18:57:29 17° NE
Resurs 01 Rocket 2.2 19:01:19 53° NNW 19:01:19 53° NNW 19:04:45 10° NNW
Terra 3.9 19:03:49 17° NNE 19:03:49 17° NNE 19:05:24 10° N
H-2A R/B 3.7 19:07:12 36° NW 19:07:12 36° NW 19:09:39 10° NNW
Cosmos 2278 Rocket 3.0 19:01:03 10° NNW 19:05:42 38° NNE 19:05:42 38° NNE
MetOp-B 4.5 19:08:30 55° NNE 19:08:30 55° NNE 19:12:55 10° N
Gbstr 26 Del rocket 4.5 19:02:28 10° W 19:10:24 81° N 19:12:38 53° ENE
IRS-1A Rocket 4.2 19:15:25 84° WSW 19:15:28 84° WSW 19:21:20 10° NNW
Cosmos 2369 Rocket 4.4 19:13:35 10° N 19:16:14 13° NNE 19:17:02 13° NNE
Cosmos 921 Rocket 4.3 19:12:43 10° NNW 19:15:35 39° NNW 19:15:35 39° NNW
Cosmos 1375 Rocket 4.4 19:14:20 10° NW 19:20:49 77° NE 19:20:49 77° NE
Cosmos 2266 Rocket 4.0 19:26:59 73° NNE 19:26:59 73° NNE 19:32:43 10° N
Cosmos 1655 Rocket 4.2 19:28:46 61° NNE 19:28:46 61° NNE 19:33:55 10° NNE
S3M 4.1 19:23:27 10° NNW 19:29:38 66° W 19:30:10 63° WSW
Cosmos 2333 Rocket 4.3 19:36:34 17° NNE 19:36:34 17° NNE 19:37:47 10° NNE
Cosmos 2360 Rocket 3.0 19:34:58 10° SW 19:40:26 49° NW 19:45:55 10° NNE
Lacrosse 4 Rocket 4.3 19:49:46 10° W 19:50:17 13° W 19:50:17 13° W
ATLAS 2AS CENTAUR R/B 3.3 19:55:15 10° NW 20:01:35 49° NNE 20:01:35 49° NNE
Cosmos 2322 Rocket 4.2 20:05:22 10° W 20:10:05 26° NW 20:14:51 10° NNE
NOSS 3-4 (A) 4.3 20:06:19 10° NW 20:12:04 55° W 20:12:04 55° W
NOSS 3-4 (C) 4.3 20:06:25 10° NW 20:12:10 55° W 20:12:10 55° W
USA 215 3.9 20:24:15 50° N 20:24:15 50° N 20:29:59 10° WNW
USA 281 3.9 20:27:40 50° NW 20:27:40 50° NW 20:32:23 10° NNW
Terra 4.4 20:42:43 17° NNW 20:42:43 17° NNW 20:43:48 10° NNW
Cosmos 1943 Rocket 4.1 20:36:49 10° NNW 20:38:59 24° NNW 20:38:59 24° NNW
Cosmos 2278 Rocket 4.2 20:45:11 10° NW 20:47:32 24° NW 20:47:32 24° NW
Cosmos 2369 Rocket 4.4 20:56:41 10° NNW 20:58:48 21° N 20:58:48 21° N
Cosmos 2333 Rocket 4.5 21:18:31 20° NNW 21:18:31 20° NNW 21:21:36 10° NNE
Cosmos 1980 Rocket 4.4 23:47:29 10° N 23:58:54 - ESE 23:51:09 21° NNE
